Location: Armathwaite
(36.3742°N, 84.7822°W)
Time: 00:25:26
(UTC+00:00)

X-37B - Visible Passes

Search period start: 13 August 2022 00:00
Search period end: 23 August 2022 00:00
Orbit: 328 x 343 km, 45.0° (Epoch: 12 August)

Date Brightness Start Highest point End Pass type
(mag) Time Alt. Az. Time Alt. Az. Time Alt. Az.
13 Aug 3.8 08:19:17 13° NNE 08:19:17 13° NNE 08:20:01 10° NE visible
13 Aug 2.5 09:51:51 10° NW 09:54:23 27° NNE 09:56:55 10° E visible
14 Aug 3.2 08:39:11 17° NNE 08:39:11 17° NNE 08:41:08 10° NE visible
14 Aug 0.9 10:12:06 10° NW 10:14:58 60° NNE 10:17:50 10° ESE visible
15 Aug 2.3 08:59:19 25° N 08:59:48 26° NNE 09:02:20 10° E visible
16 Aug 0.8 09:19:47 45° NNW 09:20:24 59° NNE 09:23:15 10° ESE visible
17 Aug 0.6 09:40:41 43° SW 09:40:49 43° SW 09:43:34 10° SE visible
18 Aug 2.5 10:02:00 13° SSW 10:02:00 13° SSW 10:02:43 10° S visible
20 Aug 1.9 01:05:54 10° S 01:07:54 18° SE 01:09:04 14° ESE visible
21 Aug 0.3 01:25:24 10° SW 01:28:10 56° SSE 01:29:43 22° ENE visible
22 Aug 1.2 01:45:53 10° WSW 01:48:37 47° NNW 01:49:59 24° NE visible
